• In Hungary
  • List of Countries
  • For 7 days
  • Water Temperature
  • Satellite Maps
  • Weather Map
  • News
  • Weather Widgets
  • user-avatar
    Login

    Hourly Weather Babenki

    Today, 23 October, Tuesday

    Time Temperature Precipitation Wind Pressure Humidity
    00:00 +4°C° 0.6 mm 4 mps 735 mmHg 87%
    01:00 +4°C° 0.6 mm 4 mps 735 mmHg 88%
    02:00 +5°C° 0 mm 3 mps 734 mmHg 91%
    03:00 +5°C° 0.8 mm 3 mps 734 mmHg 91%
    04:00 +5°C° 0.8 mm 3 mps 733 mmHg 91%
    05:00 +5°C° 0.8 mm 3 mps 733 mmHg 91%
    06:00 +5°C° 0 mm 3 mps 733 mmHg 89%
    07:00 +4°C° 0 mm 3 mps 733 mmHg 88%
    08:00 +4°C° 0 mm 3 mps 733 mmHg 86%
    09:00 +4°C° 0 mm 3 mps 732 mmHg 82%
    10:00 +5°C° 0 mm 3 mps 732 mmHg 77%
    11:00 +6°C° 0 mm 2 mps 732 mmHg 73%
    12:00 +7°C° 0 mm 2 mps 731 mmHg 72%
    13:00 +7°C° 0 mm 2 mps 730 mmHg 71%
    14:00 +7°C° 0 mm 2 mps 729 mmHg 70%
    15:00 +6°C° 0 mm 2 mps 729 mmHg 75%
    16:00 +5°C° 0 mm 2 mps 728 mmHg 79%
    17:00 +5°C° 0 mm 2 mps 727 mmHg 83%
    18:00 +4°C° 0 mm 2 mps 726 mmHg 84%
    19:00 +3°C° 0 mm 3 mps 726 mmHg 85%
    20:00 +3°C° 0 mm 3 mps 725 mmHg 86%
    21:00 +3°C° 0 mm 3 mps 724 mmHg 86%
    22:00 +3°C° 0 mm 3 mps 723 mmHg 86%
    23:00 +2°C° 0 mm 3 mps 722 mmHg 86%

    Tomorrow, 24 October, Wednesday

    Time Temperature Precipitation Wind Pressure Humidity
    00:00 +2°C° 0.1 mm 3 mps 722 mmHg 85%
    01:00 +2°C° 0.1 mm 3 mps 721 mmHg 85%
    02:00 +1°C° 0.1 mm 4 mps 720 mmHg 84%
    03:00 +1°C° 0.2 mm 4 mps 719 mmHg 84%
    04:00 +1°C° 0.2 mm 4 mps 719 mmHg 85%
    05:00 +3°C° 0.2 mm 4 mps 718 mmHg 85%
    06:00 +3°C° 0.2 mm 4 mps 717 mmHg 85%
    07:00 +3°C° 0.2 mm 4 mps 717 mmHg 85%
    08:00 +3°C° 0.2 mm 4 mps 717 mmHg 85%
    09:00 +3°C° 0.3 mm 4 mps 717 mmHg 85%
    10:00 +3°C° 0.3 mm 4 mps 716 mmHg 84%
    11:00 +4°C° 0.3 mm 4 mps 716 mmHg 83%
    12:00 +4°C° 0.3 mm 4 mps 716 mmHg 84%
    13:00 +4°C° 0.3 mm 4 mps 716 mmHg 84%
    14:00 +4°C° 0.3 mm 4 mps 716 mmHg 85%
    15:00 +4°C° 0.4 mm 4 mps 716 mmHg 86%
    16:00 +4°C° 0.4 mm 4 mps 716 mmHg 87%
    17:00 +3°C° 0.4 mm 4 mps 716 mmHg 88%
    18:00 +3°C° 0.9 mm 4 mps 717 mmHg 88%
    19:00 +3°C° 0.9 mm 4 mps 717 mmHg 89%
    20:00 +3°C° 0.9 mm 4 mps 717 mmHg 89%
    21:00 +3°C° 0.5 mm 4 mps 717 mmHg 90%
    22:00 +3°C° 0.5 mm 4 mps 717 mmHg 90%
    23:00 +3°C° 0.5 mm 4 mps 717 mmHg 90%

    Day after tomorrow, 25 October, Thursday

    Time Temperature Precipitation Wind Pressure Humidity
    00:00 +3°C° 0.3 mm 4 mps 717 mmHg 89%
    01:00 +3°C° 0.3 mm 4 mps 718 mmHg 89%
    02:00 +3°C° 0.3 mm 4 mps 718 mmHg 88%
    03:00 +3°C° 0.5 mm 4 mps 718 mmHg 88%
    04:00 +1°C° 0.5 mm 5 mps 718 mmHg 87%
    05:00 +1°C° 0.5 mm 5 mps 718 mmHg 86%
    06:00 +1°C° 0.4 mm 5 mps 718 mmHg 85%
    07:00 +1°C° 0.4 mm 5 mps 718 mmHg 85%
    08:00 +1°C° 0.4 mm 5 mps 719 mmHg 84%
    09:00 +1°C° 0.1 mm 5 mps 719 mmHg 83%
    10:00 +1°C° 0.1 mm 5 mps 719 mmHg 82%
    11:00 +1°C° 0.1 mm 5 mps 719 mmHg 80%
    12:00 +1°C° 0 mm 5 mps 719 mmHg 80%
    13:00 +1°C° 0 mm 5 mps 719 mmHg 80%
    14:00 0°C° 0 mm 5 mps 720 mmHg 80%
    15:00 0°C° 0 mm 5 mps 720 mmHg 79%
    16:00 0°C° 0 mm 5 mps 720 mmHg 79%
    17:00 0°C° 0 mm 4 mps 721 mmHg 79%
    18:00 0°C° 0 mm 4 mps 721 mmHg 79%
    19:00 0°C° 0 mm 4 mps 721 mmHg 80%
    20:00 +1°C° 0 mm 3 mps 721 mmHg 80%
    21:00 +1°C° 0 mm 3 mps 721 mmHg 82%
    22:00 +1°C° 0 mm 3 mps 722 mmHg 84%
    23:00 +1°C° 0 mm 3 mps 722 mmHg 86%

    26 October, Friday

    Time Temperature Precipitation Wind Pressure Humidity
    00:00 +1°C° 0 mm 3 mps 722 mmHg 86%
    01:00 +1°C° 0 mm 3 mps 723 mmHg 87%
    02:00 0°C° 0 mm 3 mps 723 mmHg 87%
    03:00 0°C° 0 mm 3 mps 723 mmHg 88%
    04:00 -1°C° 0 mm 3 mps 723 mmHg 90%
    05:00 -1°C° 0 mm 3 mps 724 mmHg 91%
    06:00 -1°C° 0 mm 3 mps 724 mmHg 90%
    07:00 -1°C° 0 mm 3 mps 724 mmHg 89%
    08:00 -2°C° 0 mm 4 mps 725 mmHg 88%
    09:00 -1°C° 0 mm 4 mps 725 mmHg 85%
    10:00 0°C° 0 mm 4 mps 725 mmHg 82%
    11:00 +1°C° 0 mm 4 mps 725 mmHg 80%
    12:00 +1°C° 0.1 mm 4 mps 726 mmHg 80%
    13:00 +1°C° 0.1 mm 4 mps 726 mmHg 79%
    14:00 +1°C° 0.1 mm 4 mps 726 mmHg 79%
    15:00 +1°C° 0.1 mm 4 mps 726 mmHg 80%
    16:00 +1°C° 0.1 mm 4 mps 727 mmHg 81%
    17:00 +1°C° 0.1 mm 3 mps 727 mmHg 82%
    18:00 +1°C° 0 mm 3 mps 727 mmHg 83%
    19:00 +1°C° 0 mm 3 mps 727 mmHg 84%
    20:00 +1°C° 0 mm 3 mps 728 mmHg 85%
    21:00 -1°C° 0 mm 4 mps 728 mmHg 87%
    22:00 -1°C° 0 mm 4 mps 728 mmHg 88%
    23:00 -1°C° 0 mm 4 mps 729 mmHg 90%

    27 October, Saturday

    Time Temperature Precipitation Wind Pressure Humidity
    00:00 -1°C° 0 mm 4 mps 729 mmHg 90%
    01:00 -1°C° 0 mm 4 mps 730 mmHg 89%
    02:00 -1°C° 0 mm 4 mps 730 mmHg 89%
    03:00 -1°C° 0 mm 4 mps 730 mmHg 89%
    04:00 0°C° 0 mm 3 mps 730 mmHg 88%
    05:00 0°C° 0 mm 3 mps 731 mmHg 88%
    06:00 0°C° 0 mm 3 mps 730 mmHg 88%
    07:00 +1°C° 0 mm 3 mps 730 mmHg 87%
    08:00 0°C° 0 mm 4 mps 730 mmHg 87%
    09:00 0°C° 0.7 mm 4 mps 729 mmHg 86%
    10:00 +1°C° 0.7 mm 5 mps 729 mmHg 85%
    11:00 +1°C° 0.7 mm 6 mps 728 mmHg 84%
    12:00 +2°C° 1.1 mm 6 mps 727 mmHg 84%
    13:00 +2°C° 1.1 mm 6 mps 726 mmHg 85%
    14:00 +3°C° 1.1 mm 6 mps 725 mmHg 85%
    15:00 +3°C° 0.7 mm 6 mps 725 mmHg 85%
    16:00 +3°C° 0.7 mm 6 mps 724 mmHg 85%
    17:00 +4°C° 0.7 mm 6 mps 724 mmHg 85%
    18:00 +3°C° 0.1 mm 6 mps 724 mmHg 85%
    19:00 +3°C° 0.1 mm 5 mps 724 mmHg 85%
    20:00 +3°C° 0.1 mm 5 mps 723 mmHg 85%
    21:00 +2°C° 0 mm 5 mps 724 mmHg 84%
    22:00 +2°C° 0 mm 6 mps 724 mmHg 83%
    23:00 +2°C° 0 mm 6 mps 724 mmHg 83%

    28 October, Sunday

    Time Temperature Precipitation Wind Pressure Humidity
    00:00 +2°C° 0 mm 6 mps 725 mmHg 81%
    01:00 +1°C° 0 mm 6 mps 726 mmHg 79%
    02:00 -1°C° 0 mm 7 mps 727 mmHg 78%
    03:00 -1°C° 0 mm 6 mps 728 mmHg 78%
    04:00 -1°C° 0 mm 6 mps 729 mmHg 78%
    05:00 -1°C° 0 mm 6 mps 730 mmHg 78%
    06:00 -1°C° 0 mm 5 mps 731 mmHg 79%
    07:00 -1°C° 0 mm 5 mps 733 mmHg 80%
    08:00 -1°C° 0 mm 4 mps 734 mmHg 81%
    09:00 -1°C° 0 mm 4 mps 735 mmHg 78%
    10:00 0°C° 0 mm 4 mps 736 mmHg 76%
    11:00 0°C° 0 mm 4 mps 737 mmHg 73%
    12:00 0°C° 0 mm 4 mps 737 mmHg 71%
    13:00 0°C° 0 mm 4 mps 738 mmHg 69%
    14:00 0°C° 0 mm 4 mps 738 mmHg 67%
    15:00 0°C° 0 mm 3 mps 739 mmHg 73%
    16:00 -1°C° 0 mm 2 mps 739 mmHg 79%
    17:00 -2°C° 0 mm 2 mps 740 mmHg 84%
    18:00 -2°C° 0 mm 2 mps 741 mmHg 86%
    19:00 -2°C° 0 mm 2 mps 741 mmHg 87%
    20:00 0°C° 0 mm 1 mps 742 mmHg 89%
    21:00 0°C° 0 mm 1 mps 742 mmHg 90%
    22:00 0°C° 0 mm 1 mps 743 mmHg 91%
    23:00 -1°C° 0 mm 1 mps 743 mmHg 92%

    29 October, Monday

    Time Temperature Precipitation Wind Pressure Humidity
    00:00 0°C° 0 mm 1 mps 744 mmHg 91%
    01:00 0°C° 0 mm 1 mps 744 mmHg 90%
    02:00 -1°C° 0 mm 0 mps 744 mmHg 88%
    03:00 0°C° 0 mm 1 mps 744 mmHg 88%
    04:00 0°C° 0 mm 1 mps 744 mmHg 87%
    05:00 0°C° 0 mm 1 mps 744 mmHg 86%
    06:00 0°C° 0 mm 1 mps 744 mmHg 85%
    07:00 -1°C° 0 mm 2 mps 744 mmHg 84%
    08:00 -1°C° 0 mm 2 mps 744 mmHg 83%
    09:00 -1°C° 0.3 mm 2 mps 745 mmHg 84%
    10:00 -1°C° 0.3 mm 2 mps 745 mmHg 85%
    11:00 -1°C° 0.3 mm 2 mps 745 mmHg 86%
    12:00 -1°C° 0.4 mm 3 mps 744 mmHg 87%
    13:00 -1°C° 0.4 mm 3 mps 744 mmHg 87%
    14:00 -2°C° 0.4 mm 4 mps 744 mmHg 87%
    15:00 -2°C° 0.4 mm 4 mps 743 mmHg 87%
    16:00 -2°C° 0.4 mm 5 mps 743 mmHg 87%
    17:00 -2°C° 0.4 mm 5 mps 743 mmHg 87%
    18:00 -2°C° 0.3 mm 5 mps 743 mmHg 87%
    19:00 -2°C° 0.3 mm 5 mps 742 mmHg 88%
    20:00 -2°C° 0.3 mm 5 mps 742 mmHg 88%
    21:00 -2°C° 0.1 mm 5 mps 742 mmHg 89%
    22:00 -2°C° 0.1 mm 5 mps 742 mmHg 90%
    23:00 -2°C° 0.1 mm 5 mps 741 mmHg 90%
    Show more